User: anonymous   Login
Location: Banios
(43.0451°N, 0.2335°E)
Time: 00:39:18
(UTC+00:00)
Language:

ADEOS - Orbit

View from above orbital plane
View from above orbital plane
View from above satellite
View from above satellite

Ground track
Ground track

The orbit data is extracted from the following two-line orbital elements,

1 24277U 96046A   21104.51698536 -.00000031  00000-0  62197-5 0  9993
2 24277  98.9110  92.0135 0001012 156.1857 203.9371 14.29464260285625
Epoch (UTC): 14 April 2021 12:24:27
Eccentricity: 0.0001012
inclination: 98.9110°
perigee height: 793 km
apogee height: 794 km
right ascension of ascending node: 92.0135°
argument of perigee: 156.1857°
revolutions per day: 14.29464260
mean anomaly at epoch: 203.9371°
orbit number at epoch: 28562

The dashed part of the orbit path shows where the satellite is in the earth's shadow,  

DLR